QPF
0.04 0.04 0.02 0.01 0.00 0.00 0.00 0.00 0.00 0.00 0.00 0.00 0.00 0.00 0.00 0.00 0.00 0.00 0.00 0.00 0.00 0.00 0.00 0.00 0.00 0.00 0.00 0.00 0.00 0.00 0.00 0.00 0.00 0.00 0.00 0.00 0.00 0.00
0.03 0.03 0.03 0.02 0.02 0.02 0.01 0.00 0.00 0.00 0.00 0.00 0.00 0.00 0.00 0.00 0.00 0.00 0.00 0.00 0.00 0.00 0.00 0.00 0.00 0.00 0.00 0.00 0.00 0.00 0.00 0.00 0.00 0.00 0.00 0.00 0.00 0.00
0.01 0.01 0.02 0.02 0.02 0.02 0.01 0.00 0.00 0.00 0.00 0.00 0.00 0.00 0.00 0.00 0.00 0.00 0.00 0.00 0.00 0.00 0.00 0.00 0.00 0.00 0.00 0.00 0.00 0.00 0.00 0.00 0.00 0.00 0.00 0.00 0.01 0.01
0.00 0.00 0.01 0.01 0.02 0.01 0.00 0.00 0.00 0.00 0.00 0.00 0.00 0.00 0.00 0.00 0.00 0.00 0.00 0.00 0.00 0.00 0.00 0.00 0.00 0.00 0.00 0.00 0.00 0.00 0.00 0.00 0.00 0.00 0.00 0.00 0.00 0.01
0.01 0.02 0.03 0.02 0.01 0.00 0.00 0.00 0.00 0.00 0.00 0.00 0.00 0.00 0.00 0.00 0.00 0.00 0.00 0.00 0.00 0.00 0.00 0.00 0.00 0.00 0.00 0.00 0.00 0.00 0.00 0.00 0.00 0.00 0.00 0.00 0.00 0.00
0.03 0.04 0.04 0.03 0.01 0.00 0.00 0.00 0.00 0.00 0.00 0.00 0.00 0.00 0.00 0.00 0.00 0.00 0.00 0.00 0.00 0.00 0.00 0.00 0.00 0.00 0.00 0.00 0.00 0.00 0.00 0.00 0.00 0.00 0.00 0.00 0.00 0.00
0.01 0.01 0.02 0.02 0.01 0.00 0.00 0.00 0.00 0.00 0.00 0.00 0.00 0.00 0.00 0.00 0.00 0.00 0.00 0.00 0.00 0.00 0.00 0.00 0.00 0.00 0.00 0.00 0.00 0.00 0.00 0.00 0.00 0.00 0.00 0.00 0.00 0.00
0.00 0.00 0.00 0.00 0.00 0.00 0.00 0.00 0.00 0.00 0.00 0.00 0.00 0.00 0.00 0.00 0.00 0.00 0.00 0.00 0.00 0.00 0.00 0.00 0.00 0.00 0.00 0.00 0.00 0.00 0.00 0.00 0.00 0.00 0.00 0.00 0.00 0.00
0.00 0.00 0.00 0.00 0.00 0.00 0.00 0.00 0.00 0.00 0.00 0.00 0.00 0.00 0.00 0.00 0.00 0.00 0.00 0.00 0.00 0.00 0.00 0.00 0.00 0.00 0.00 0.00 0.00 0.00 0.00 0.00 0.00 0.00 0.00 0.00 0.00 0.00
0.00 0.00 0.00 0.00 0.00 0.00 0.00 0.00 0.00 0.00 0.00 0.00 0.00 0.00 0.00 0.00 0.00 0.00 0.00 0.00 0.00 0.00 0.00 0.00 0.00 0.00 0.00 0.00 0.00 0.00 0.00 0.00 0.00 0.00 0.00 0.00 0.00 0.00
0.00 0.00 0.00 0.00 0.00 0.00 0.00 0.00 0.00 0.00 0.00 0.00 0.00 0.00 0.00 0.00 0.00 0.00 0.00 0.00 0.00 0.00 0.00 0.00 0.00 0.00 0.00 0.00 0.00 0.00 0.00 0.00 0.00 0.00 0.00 0.00 0.00 0.00
0.00 0.00 0.00 0.00 0.00 0.00 0.00 0.00 0.00 0.00 0.00 0.00 0.00 0.00 0.00 0.00 0.00 0.00 0.00 0.00 0.00 0.00 0.00 0.00 0.00 0.00 0.00 0.00 0.00 0.00 0.00 0.00 0.00 0.00 0.00 0.00 0.00 0.00
0.00 0.00 0.00 0.00 0.00 0.00 0.00 0.00 0.00 0.00 0.00 0.00 0.00 0.00 0.00 0.00 0.00 0.00 0.00 0.00 0.00 0.00 0.00 0.00 0.00 0.00 0.01 0.00 0.00 0.00 0.00 0.00 0.00 0.00 0.00 0.00 0.00 0.00
0.00 0.00 0.00 0.00 0.00 0.00 0.00 0.00 0.00 0.00 0.00 0.00 0.00 0.00 0.00 0.00 0.00 0.00 0.00 0.00 0.00 0.00 0.00 0.00 0.00 0.01 0.01 0.01 0.00 0.00 0.00 0.00 0.00 0.00 0.00 0.00 0.00 0.00
0.00 0.00 0.00 0.00 0.00 0.00 0.00 0.00 0.00 0.00 0.00 0.00 0.00 0.00 0.00 0.00 0.00 0.00 0.00 0.00 0.00 0.00 0.00 0.00 0.00 0.00 0.01 0.01 0.01 0.00 0.00 0.00 0.00 0.00 0.00 0.00 0.00 0.00
0.00 0.00 0.00 0.00 0.00 0.00 0.00 0.00 0.00 0.00 0.00 0.00 0.00 0.00 0.00 0.00 0.00 0.00 0.00 0.00 0.00 0.00 0.00 0.00 0.00 0.00 0.00 0.01 0.01 0.01 0.01 0.01 0.00 0.00 0.00 0.00 0.00 0.00
0.00 0.00 0.00 0.00 0.00 0.00 0.00 0.00 0.00 0.00 0.00 0.00 0.00 0.00 0.00 0.00 0.00 0.00 0.00 0.00 0.00 0.00 0.00 0.00 0.00 0.00 0.00 0.00 0.01 0.01 0.01 0.01 0.00 0.00 0.00 0.00 0.00 0.00
0.00 0.00 0.00 0.00 0.00 0.00 0.00 0.00 0.00 0.00 0.00 0.00 0.00 0.00 0.00 0.00 0.00 0.00 0.00 0.00 0.00 0.00 0.00 0.00 0.00 0.00 0.00 0.00 0.00 0.01 0.02 0.01 0.00 0.00 0.00 0.00 0.00 0.00
0.00 0.00 0.00 0.00 0.00 0.00 0.00 0.00 0.00 0.00 0.00 0.00 0.00 0.00 0.00 0.00 0.00 0.00 0.00 0.00 0.00 0.00 0.00 0.00 0.00 0.00 0.00 0.00 0.00 0.00 0.01 0.01 0.00 0.00 0.00 0.00 0.00 0.00
0.00 0.00 0.00 0.00 0.00 0.00 0.00 0.00 0.00 0.00 0.00 0.00 0.00 0.00 0.00 0.00 0.00 0.00 0.00 0.00 0.00 0.00 0.00 0.00 0.00 0.00 0.00 0.00 0.00 0.00 0.00 0.00 0.00 0.00 0.00 0.00 0.00 0.00
0.00 0.00 0.00 0.00 0.00 0.00 0.00 0.00 0.00 0.00 0.00 0.00 0.00 0.00 0.00 0.00 0.00 0.00 0.00 0.00 0.00 0.00 0.00 0.00 0.00 0.00 0.00 0.00 0.00 0.00 0.00 0.00 0.00 0.00 0.00 0.00 0.00 0.00
0.00 0.00 0.00 0.00 0.00 0.00 0.00 0.00 0.00 0.00 0.00 0.00 0.00 0.00 0.00 0.00 0.00 0.00 0.00 0.00 0.00 0.00 0.00 0.00 0.00 0.00 0.00 0.00 0.00 0.00 0.00 0.00 0.00 0.00 0.00 0.00 0.00 0.00
0.00 0.00 0.00 0.00 0.00 0.00 0.00 0.00 0.00 0.00 0.00 0.00 0.00 0.00 0.00 0.00 0.00 0.00 0.00 0.00 0.00 0.00 0.00 0.00 0.00 0.00 0.00 0.00 0.00 0.00 0.00 0.00 0.00 0.00 0.00 0.00 0.00 0.00
MSLP
1019.26 1019.31 1019.38 1019.61 1019.71 1019.86 1020.05 1020.39 1021.10 1021.90 1022.42 1022.13 1022.13 1021.76 1022.38 1022.99 1023.28 1023.58 1023.77 1023.66 1023.91 1024.06 1024.41 1024.50 1024.53 1024.59 1024.63 1024.55 1024.52 1024.53 1024.37 1024.36 1024.43 1024.42 1024.49 1024.48 1024.56 1024.65
1018.34 1018.50 1018.51 1018.68 1018.97 1019.10 1019.39 1019.65 1019.81 1020.46 1020.58 1020.47 1020.65 1020.94 1021.48 1021.89 1022.25 1022.84 1022.96 1023.20 1023.49 1023.48 1023.63 1023.71 1023.74 1023.84 1023.92 1023.88 1023.76 1023.78 1023.57 1023.63 1023.70 1023.66 1023.69 1023.74 1023.82 1023.82
1017.43 1017.26 1017.38 1017.84 1018.14 1018.35 1018.61 1018.46 1019.15 1019.51 1019.61 1019.78 1019.79 1020.35 1021.09 1021.39 1021.77 1022.02 1022.18 1022.45 1022.42 1022.88 1023.05 1023.08 1023.13 1023.23 1023.26 1023.12 1023.01 1023.00 1022.91 1022.87 1022.90 1022.90 1022.91 1022.90 1022.93 1022.92
1015.99 1015.89 1016.30 1016.76 1017.00 1017.36 1017.61 1017.52 1017.87 1018.45 1018.72 1019.27 1019.74 1020.46 1020.89 1020.84 1020.95 1021.33 1021.57 1021.77 1021.76 1022.04 1022.53 1022.56 1022.58 1022.57 1022.55 1022.42 1022.24 1022.30 1022.32 1022.24 1022.13 1022.05 1022.10 1022.15 1022.25 1022.29
1014.55 1014.71 1014.85 1015.21 1015.98 1016.22 1016.07 1016.59 1016.95 1017.89 1018.11 1018.79 1019.45 1019.90 1020.21 1020.48 1020.80 1020.99 1021.24 1021.39 1021.49 1021.63 1021.90 1021.98 1021.97 1021.86 1021.74 1021.57 1021.46 1021.38 1021.30 1021.26 1021.28 1021.15 1021.26 1021.39 1021.52 1021.53
1013.91 1013.79 1014.00 1014.38 1014.75 1015.00 1015.20 1015.86 1016.70 1017.28 1018.08 1018.89 1019.29 1019.84 1020.09 1020.40 1020.78 1020.56 1020.71 1020.93 1021.04 1021.14 1021.25 1021.34 1021.32 1021.17 1021.01 1020.83 1020.75 1020.52 1020.40 1020.33 1020.27 1020.20 1020.25 1020.37 1020.53 1020.60
1013.55 1013.48 1013.67 1013.72 1014.03 1014.36 1014.93 1015.56 1016.13 1017.10 1018.00 1018.56 1019.33 1019.42 1019.71 1020.32 1020.35 1020.32 1020.34 1020.39 1020.51 1020.86 1020.67 1020.44 1020.52 1020.39 1020.12 1020.01 1019.75 1019.63 1019.61 1019.49 1019.41 1019.36 1019.32 1019.41 1019.65 1019.86
1013.33 1013.87 1014.07 1014.20 1014.44 1014.89 1015.14 1015.69 1015.96 1016.54 1017.93 1018.72 1019.00 1019.48 1019.68 1019.99 1020.17 1020.25 1020.24 1020.30 1019.90 1020.11 1020.18 1019.86 1019.90 1019.63 1019.42 1019.15 1018.83 1018.89 1018.85 1018.80 1018.64 1018.41 1018.41 1018.61 1018.84 1019.09
1013.95 1014.41 1014.92 1015.40 1015.36 1015.85 1017.12 1016.83 1017.40 1017.39 1017.90 1018.68 1019.15 1019.57 1019.97 1020.04 1020.26 1020.38 1020.22 1020.10 1019.79 1019.46 1019.78 1019.13 1019.19 1018.67 1018.41 1018.16 1018.12 1018.05 1017.91 1017.77 1017.63 1017.55 1017.54 1017.74 1018.01 1018.31
1015.34 1015.64 1015.94 1016.26 1016.69 1016.73 1017.91 1018.20 1018.49 1018.80 1019.08 1019.63 1019.98 1019.98 1020.04 1020.17 1020.14 1020.27 1019.97 1019.95 1019.63 1019.19 1019.24 1018.42 1018.12 1017.56 1017.33 1017.15 1017.11 1017.09 1016.93 1016.80 1016.67 1016.62 1016.68 1016.97 1017.29 1017.55
1016.81 1017.18 1017.47 1017.73 1017.64 1018.05 1018.15 1018.67 1019.44 1019.49 1019.64 1019.93 1020.19 1020.38 1020.35 1020.52 1020.35 1020.05 1019.83 1019.48 1018.87 1018.32 1018.04 1017.69 1017.24 1016.80 1016.49 1016.18 1016.02 1016.02 1015.91 1015.83 1015.72 1015.77 1016.01 1016.31 1016.61 1016.92
1017.87 1018.31 1018.73 1019.02 1019.09 1018.75 1019.14 1019.29 1019.48 1019.79 1020.01 1020.22 1020.40 1020.34 1020.40 1020.20 1020.64 1020.25 1020.05 1019.61 1018.88 1017.88 1017.19 1017.21 1016.80 1016.50 1015.81 1015.12 1014.97 1015.18 1014.90 1014.78 1014.95 1015.13 1015.39 1015.67 1015.87 1016.01
1018.80 1019.20 1019.49 1019.56 1019.54 1019.61 1019.55 1019.42 1019.52 1019.94 1020.11 1020.18 1020.23 1020.14 1019.97 1020.07 1020.41 1020.25 1020.32 1020.09 1019.32 1018.19 1017.67 1018.14 1017.19 1016.52 1016.16 1014.81 1014.42 1014.38 1014.27 1014.09 1013.95 1014.03 1014.52 1014.90 1015.25 1015.46
1019.44 1019.81 1019.94 1020.02 1019.98 1019.87 1019.75 1019.84 1020.08 1020.26 1020.29 1020.29 1020.23 1020.10 1020.22 1020.40 1020.37 1020.34 1020.05 1019.79 1019.43 1018.75 1018.29 1018.58 1017.66 1016.84 1015.94 1014.78 1013.67 1013.21 1013.18 1013.37 1013.49 1013.26 1013.41 1013.94 1014.70 1015.08
1020.16 1020.35 1020.35 1020.30 1020.16 1019.98 1020.00 1020.22 1020.39 1020.44 1020.45 1020.40 1020.37 1020.43 1020.52 1020.61 1020.48 1020.13 1019.68 1019.41 1018.88 1018.48 1018.21 1017.86 1017.19 1016.23 1015.61 1014.58 1013.43 1012.61 1012.36 1012.47 1012.65 1012.76 1012.96 1013.23 1013.67 1014.04
1020.56 1020.54 1020.52 1020.43 1020.28 1020.25 1020.31 1020.44 1020.54 1020.63 1020.65 1020.56 1020.66 1020.63 1020.66 1020.51 1020.33 1020.04 1019.59 1019.07 1018.53 1017.90 1017.40 1017.16 1016.66 1016.12 1015.11 1014.21 1013.47 1012.18 1011.57 1011.60 1011.63 1011.96 1012.25 1012.46 1012.81 1013.22
1020.68 1020.61 1020.54 1020.47 1020.47 1020.47 1020.54 1020.64 1020.78 1020.87 1020.84 1020.86 1020.87 1020.76 1020.64 1020.43 1020.15 1019.91 1019.44 1018.88 1018.28 1017.43 1016.82 1016.44 1016.02 1015.58 1014.71 1013.91 1012.76 1011.67 1010.77 1010.41 1010.69 1011.08 1011.61 1011.67 1012.00 1012.38
1020.89 1020.90 1020.94 1021.08 1021.04 1020.98 1020.88 1020.91 1021.08 1021.19 1021.18 1021.21 1021.07 1020.87 1020.62 1020.45 1020.11 1019.80 1019.39 1019.04 1018.34 1017.59 1016.88 1016.30 1015.68 1014.82 1013.45 1011.99 1011.47 1010.44 1009.83 1009.62 1009.99 1010.48 1010.89 1010.93 1011.22 1011.54
1021.80 1022.01 1022.10 1022.16 1022.06 1021.94 1021.87 1021.83 1021.76 1021.81 1021.99 1021.68 1021.48 1021.23 1021.04 1020.70 1020.44 1019.83 1019.37 1018.85 1018.25 1017.67 1016.92 1016.31 1015.60 1014.74 1013.40 1011.73 1010.49 1010.00 1009.53 1008.98 1009.17 1009.52 1009.92 1010.37 1010.57 1010.76
1023.14 1023.14 1023.13 1023.09 1023.01 1022.89 1022.80 1022.82 1022.79 1022.61 1022.45 1022.32 1022.05 1021.69 1021.41 1020.85 1020.33 1019.85 1019.50 1019.03 1018.46 1017.86 1016.97 1016.09 1015.41 1014.75 1014.02 1013.03 1011.98 1010.59 1010.17 1009.93 1008.52 1008.71 1009.31 1009.86 1010.38 1011.11
1024.41 1024.29 1024.33 1024.34 1024.29 1024.13 1023.92 1023.84 1023.65 1023.30 1023.21 1022.87 1022.35 1021.91 1021.44 1020.95 1020.48 1020.06 1019.60 1019.18 1018.72 1017.74 1016.73 1015.91 1015.38 1015.39 1014.40 1013.25 1011.90 1010.10 1008.74 1008.52 1008.10 1008.09 1008.53 1009.21 1009.69 1010.29
1025.65 1025.44 1025.30 1025.21 1025.14 1024.88 1024.60 1024.23 1023.98 1023.60 1023.18 1022.81 1022.39 1021.96 1021.38 1021.00 1020.55 1020.03 1019.47 1018.91 1018.29 1017.61 1016.82 1015.93 1015.17 1014.37 1013.40 1012.43 1011.19 1010.00 1009.01 1007.56 1007.82 1008.36 1008.58 1008.76 1009.24 1009.45
1026.52 1026.35 1026.13 1025.88 1025.59 1025.28 1024.98 1024.73 1024.44 1024.09 1023.56 1023.03 1022.56 1021.97 1021.52 1020.99 1020.44 1019.83 1019.22 1018.71 1018.12 1017.45 1016.75 1015.71 1014.83 1014.06 1012.93 1011.96 1011.08 1009.85 1008.87 1007.48 1007.48 1008.22 1008.58 1009.03 1009.30 1009.61
Thickness
5567 5566 5564 5561 5558 5553 5547 5541 5534 5527 5516 5516 5515 5511 5504 5496 5491 5485 5479 5474 5469 5463 5455 5449 5443 5437 5431 5425 5419 5414 5410 5404 5397 5392 5385 5380 5373 5367
5562 5560 5559 5556 5552 5549 5543 5536 5532 5527 5525 5520 5512 5507 5498 5492 5485 5478 5471 5464 5458 5453 5446 5440 5434 5427 5419 5413 5408 5402 5399 5392 5384 5379 5372 5365 5357 5350
5558 5556 5554 5551 5545 5542 5537 5536 5528 5522 5522 5514 5508 5496 5487 5482 5474 5468 5460 5453 5448 5441 5434 5428 5421 5413 5407 5402 5397 5391 5386 5380 5373 5365 5358 5350 5343 5333
5558 5561 5553 5547 5545 5541 5533 5532 5527 5519 5513 5507 5497 5483 5476 5471 5465 5456 5448 5441 5436 5429 5420 5413 5406 5400 5393 5389 5386 5379 5372 5366 5360 5353 5344 5335 5327 5317
5562 5559 5558 5554 5545 5541 5540 5531 5522 5509 5503 5494 5484 5473 5468 5462 5453 5444 5435 5427 5420 5413 5405 5397 5390 5384 5380 5376 5372 5366 5360 5354 5347 5340 5331 5322 5311 5302
5560 5559 5554 5549 5544 5539 5533 5522 5511 5501 5487 5476 5468 5461 5454 5446 5436 5432 5423 5414 5407 5397 5389 5383 5376 5371 5366 5361 5357 5352 5347 5340 5333 5325 5317 5308 5299 5289
5554 5552 5546 5542 5535 5528 5520 5511 5500 5485 5473 5463 5454 5449 5442 5428 5421 5416 5410 5402 5393 5383 5376 5371 5363 5357 5351 5346 5343 5338 5331 5325 5317 5310 5302 5294 5283 5271
5543 5534 5528 5523 5513 5506 5501 5491 5482 5476 5461 5448 5440 5430 5421 5414 5406 5398 5391 5383 5381 5373 5362 5359 5349 5343 5337 5330 5327 5321 5315 5309 5302 5296 5287 5278 5268 5255
5521 5514 5507 5498 5492 5484 5470 5469 5458 5453 5446 5434 5423 5411 5401 5394 5385 5377 5370 5364 5360 5354 5344 5348 5334 5333 5324 5319 5311 5306 5301 5296 5290 5283 5276 5264 5252 5241
5496 5489 5483 5477 5471 5465 5450 5440 5432 5426 5418 5406 5396 5388 5380 5373 5365 5356 5352 5344 5340 5333 5322 5326 5321 5320 5314 5307 5299 5291 5288 5284 5277 5270 5261 5249 5237 5227
5470 5463 5457 5450 5446 5437 5432 5421 5408 5402 5393 5384 5375 5366 5357 5347 5340 5334 5329 5325 5325 5319 5307 5305 5303 5300 5299 5294 5286 5277 5274 5270 5264 5256 5245 5234 5224 5215
5447 5438 5430 5423 5417 5413 5404 5397 5389 5379 5369 5360 5351 5342 5334 5327 5315 5307 5301 5298 5297 5300 5289 5284 5280 5273 5282 5281 5275 5265 5255 5253 5246 5238 5229 5220 5212 5204
5421 5412 5405 5399 5393 5386 5380 5374 5366 5355 5345 5336 5328 5320 5313 5302 5291 5282 5272 5266 5265 5268 5259 5248 5255 5250 5244 5262 5261 5249 5242 5232 5230 5226 5218 5209 5200 5193
5397 5388 5381 5375 5369 5363 5357 5348 5338 5328 5320 5312 5304 5295 5284 5274 5265 5255 5248 5242 5237 5236 5230 5217 5223 5222 5224 5231 5239 5237 5228 5218 5213 5211 5207 5199 5189 5183
5372 5365 5358 5352 5346 5340 5332 5322 5312 5303 5293 5285 5275 5264 5254 5244 5236 5230 5224 5218 5214 5210 5204 5199 5199 5205 5203 5208 5214 5220 5213 5207 5200 5197 5193 5188 5182 5177
5351 5343 5336 5329 5322 5313 5304 5295 5285 5275 5264 5255 5244 5234 5224 5215 5207 5201 5197 5194 5193 5191 5184 5176 5173 5175 5185 5189 5188 5200 5199 5194 5191 5186 5182 5179 5175 5172
5330 5323 5315 5307 5297 5288 5277 5266 5255 5244 5233 5221 5210 5201 5192 5185 5178 5170 5167 5166 5166 5170 5167 5160 5154 5152 5159 5167 5173 5180 5187 5186 5181 5177 5172 5173 5170 5167
5308 5299 5290 5278 5267 5257 5246 5234 5221 5208 5197 5184 5174 5164 5157 5148 5144 5138 5134 5132 5134 5135 5137 5136 5136 5138 5145 5157 5161 5171 5175 5176 5171 5168 5167 5169 5168 5165
5278 5265 5253 5241 5229 5217 5205 5192 5179 5166 5152 5142 5133 5124 5117 5112 5107 5106 5103 5103 5104 5105 5108 5108 5110 5115 5127 5139 5146 5152 5162 5166 5165 5165 5166 5165 5164 5163
5238 5226 5214 5201 5188 5174 5161 5147 5133 5121 5110 5100 5092 5086 5080 5077 5075 5073 5071 5070 5072 5074 5078 5081 5085 5091 5098 5108 5116 5129 5136 5143 5161 5165 5163 5161 5158 5153
5199 5185 5170 5155 5141 5126 5113 5100 5087 5078 5068 5061 5056 5050 5046 5043 5041 5040 5041 5040 5041 5048 5055 5057 5061 5063 5073 5085 5101 5119 5136 5144 5155 5161 5161 5158 5156 5155
5157 5143 5128 5112 5097 5084 5072 5062 5051 5041 5034 5028 5023 5019 5017 5014 5013 5014 5016 5018 5022 5027 5033 5039 5045 5055 5067 5080 5096 5112 5126 5146 5150 5151 5153 5154 5153 5156
5117 5101 5087 5073 5061 5050 5038 5027 5016 5008 5003 4999 4996 4994 4992 4992 4993 4996 4999 5002 5007 5012 5019 5028 5037 5047 5062 5076 5090 5107 5121 5142 5149 5148 5148 5146 5147 5150